Check out our new BloomSky Weather System.

Active alerts

Houston, TX
  Details for Houston, TX River Flood Warning  +1 additional alert
Fort Bend, TX
  Details for Fort Bend, TX River Flood Warning  +1 additional alert


Thunder radar  blitzortung!


Rain radar more information rain snow radar


Visit our other weather sites:

Template documentation
and downloads

And another site



Weather Underground History page Text

Daily Summary for February 13, 2018 Units:  English    Metric   Both
« Previous Day
Next Day »
Daily Weekly Monthly Yearly Custom
  High: Low: Average:
Temperature: TemperatureF °F 43.0 °F 46.5 °F
Dew Point: DewpointF °F 41.4 °F 45.6 °F
Humidity: Humidity % 93 % 96 %
Wind Speed: WindSpeedMPH mph 0.0 mph 0.8 mph
Wind Gust: WindSpeedGustMPH mph - -
Wind:- - South
Pressure: PressureIn in 30.34 in -
Precipitation: 0.10 in    
Historical Graphs
 
 
Tabular Data for February 13, 2018
Time Temperature Dew Point Pressure Wind Wind Speed Wind Gust Humidity Rainfall Rate (Hourly)
TemperatureF °F DewpointF °F PressureIn in Calm     Humidity % HourlyPrecipIn in
00:04 43.5 °F 41.9 °F 30.38 in NNW 1.0 mph 3.0 mph 94 % 0.00 in
00:09 43.3 °F 41.7 °F 30.38 in Calm   3.0 mph 94 % 0.00 in
00:14 43.3 °F 41.7 °F 30.38 in East 2.0 mph 3.0 mph 94 % 0.00 in
00:19 43.3 °F 41.7 °F 30.38 in North 2.0 mph 4.0 mph 94 % 0.00 in
00:24 43.2 °F 41.5 °F 30.38 in North 1.0 mph 4.0 mph 94 % 0.00 in
00:29 43.2 °F 41.5 °F 30.38 in North 1.0 mph 5.0 mph 94 % 0.00 in
00:34 43.3 °F 41.7 °F 30.39 in Calm   5.0 mph 94 % 0.00 in
00:39 43.3 °F 41.7 °F 30.39 in Calm   5.0 mph 94 % 0.00 in
00:44 43.3 °F 41.7 °F 30.39 in NNE 2.0 mph 3.0 mph 94 % 0.00 in
00:49 43.3 °F 41.7 °F 30.39 in Calm   2.0 mph 94 % 0.00 in
00:54 43.3 °F 41.7 °F 30.39 in Calm   2.0 mph 94 % 0.00 in
00:59 43.2 °F 41.5 °F 30.39 in Calm   3.0 mph 94 % 0.00 in
01:04 43.2 °F 41.4 °F 30.39 in Calm   3.0 mph 93 % 0.00 in
01:09 43.2 °F 41.4 °F 30.38 in North 5.0 mph 5.0 mph 93 % 0.00 in
01:14 43.2 °F 41.4 °F 30.38 in NNE 1.0 mph 6.0 mph 93 % 0.00 in
01:19 43.2 °F 41.4 °F 30.39 in Calm   6.0 mph 93 % 0.00 in
01:24 43.3 °F 41.5 °F 30.38 in Calm   6.0 mph 93 % 0.00 in
01:29 43.3 °F 41.5 °F 30.38 in NNE 2.0 mph 3.0 mph 93 % 0.00 in
01:34 43.3 °F 41.5 °F 30.38 in NE 2.0 mph 3.0 mph 93 % 0.00 in
01:39 43.3 °F 41.5 °F 30.38 in NNW 5.0 mph 5.0 mph 93 % 0.00 in
01:44 43.3 °F 41.5 °F 30.37 in NE 3.0 mph 5.0 mph 93 % 0.00 in
01:49 43.3 °F 41.5 °F 30.37 in North 1.0 mph 5.0 mph 93 % 0.00 in
01:54 43.3 °F 41.5 °F 30.38 in NW 1.0 mph 5.0 mph 93 % 0.00 in
01:59 43.3 °F 41.5 °F 30.38 in NNW 1.0 mph 5.0 mph 93 % 0.00 in
02:04 43.3 °F 41.5 °F 30.38 in NW 2.0 mph 3.0 mph 93 % 0.00 in
02:09 43.3 °F 41.5 °F 30.38 in Calm   4.0 mph 93 % 0.00 in
02:14 43.3 °F 41.5 °F 30.38 in Calm   4.0 mph 93 % 0.00 in
02:19 43.3 °F 41.5 °F 30.38 in Calm   4.0 mph 93 % 0.00 in
02:24 43.3 °F 41.5 °F 30.38 in East 1.0 mph 2.0 mph 93 % 0.00 in
02:29 43.3 °F 41.5 °F 30.38 in Calm   2.0 mph 93 % 0.00 in
02:34 43.3 °F 41.5 °F 30.38 in North 1.0 mph 1.0 mph 93 % 0.00 in
02:39 43.3 °F 41.5 °F 30.38 in NNE 1.0 mph 2.0 mph 93 % 0.00 in
02:44 43.3 °F 41.5 °F 30.37 in Calm   2.0 mph 93 % 0.00 in
02:49 43.3 °F 41.5 °F 30.37 in East 2.0 mph 2.0 mph 93 % 0.00 in
02:54 43.5 °F 41.7 °F 30.37 in Calm   2.0 mph 93 % 0.00 in
02:59 43.3 °F 41.5 °F 30.37 in Calm   2.0 mph 93 % 0.00 in
03:04 43.5 °F 41.7 °F 30.37 in NNE 1.0 mph 2.0 mph 93 % 0.00 in
03:09 43.3 °F 41.5 °F 30.37 in Calm   2.0 mph 93 % 0.00 in
03:14 43.3 °F 41.5 °F 30.36 in NE 1.0 mph 3.0 mph 93 % 0.00 in
03:19 43.3 °F 41.5 °F 30.36 in NE 3.0 mph 4.0 mph 93 % 0.00 in
03:24 43.3 °F 41.5 °F 30.36 in ENE 2.0 mph 4.0 mph 93 % 0.00 in
03:29 43.2 °F 41.4 °F 30.35 in Calm   4.0 mph 93 % 0.00 in
03:34 43.2 °F 41.4 °F 30.35 in ENE 2.0 mph 4.0 mph 93 % 0.00 in
03:39 43.2 °F 41.4 °F 30.35 in NE 5.0 mph 5.0 mph 93 % 0.00 in
03:44 43.2 °F 41.4 °F 30.35 in ENE 2.0 mph 6.0 mph 93 % 0.00 in
03:49 43.2 °F 41.4 °F 30.35 in Calm   6.0 mph 93 % 0.00 in
03:54 43.2 °F 41.4 °F 30.36 in North 1.0 mph 6.0 mph 93 % 0.00 in
03:59 43.2 °F 41.4 °F 30.36 in Calm   5.0 mph 93 % 0.00 in
04:04 43.2 °F 41.4 °F 30.37 in Calm   5.0 mph 93 % 0.00 in
04:09 43.2 °F 41.4 °F 30.37 in NW 1.0 mph 3.0 mph 93 % 0.00 in
04:14 43.2 °F 41.4 °F 30.37 in Calm   3.0 mph 93 % 0.00 in
04:19 43.2 °F 41.4 °F 30.37 in NW 1.0 mph 4.0 mph 93 % 0.00 in
04:24 43.2 °F 41.4 °F 30.38 in Calm   4.0 mph 93 % 0.00 in
04:29 43.2 °F 41.4 °F 30.39 in Calm   4.0 mph 93 % 0.00 in
04:34 43.3 °F 41.5 °F 30.39 in North 1.0 mph 3.0 mph 93 % 0.00 in
04:39 43.3 °F 41.5 °F 30.38 in NNE 2.0 mph 3.0 mph 93 % 0.00 in
04:44 43.3 °F 41.5 °F 30.38 in NNW 1.0 mph 3.0 mph 93 % 0.00 in
04:50 43.3 °F 41.5 °F 30.38 in Calm   3.0 mph 93 % 0.00 in
04:55 43.3 °F 41.5 °F 30.38 in Calm   3.0 mph 93 % 0.00 in
05:00 43.3 °F 41.5 °F 30.38 in NW 1.0 mph 3.0 mph 93 % 0.00 in
05:05 43.3 °F 41.7 °F 30.38 in NW 2.0 mph 3.0 mph 94 % 0.00 in
05:10 43.3 °F 41.7 °F 30.38 in Calm   2.0 mph 94 % 0.00 in
05:15 43.3 °F 41.7 °F 30.38 in Calm   3.0 mph 94 % 0.00 in
05:20 43.3 °F 41.7 °F 30.38 in Calm   4.0 mph 94 % 0.00 in
05:25 43.3 °F 41.7 °F 30.38 in Calm   4.0 mph 94 % 0.00 in
05:30 43.2 °F 41.5 °F 30.37 in NNE 1.0 mph 4.0 mph 94 % 0.00 in
05:35 43.2 °F 41.5 °F 30.37 in NNE 1.0 mph 4.0 mph 94 % 0.00 in
05:40 43.2 °F 41.5 °F 30.36 in NNE 2.0 mph 5.0 mph 94 % 0.00 in
05:45 43.2 °F 41.5 °F 30.37 in NW 1.0 mph 6.0 mph 94 % 0.00 in
05:50 43.2 °F 41.5 °F 30.38 in North 2.0 mph 6.0 mph 94 % 0.00 in
05:55 43.2 °F 41.5 °F 30.38 in WNW 1.0 mph 5.0 mph 94 % 0.00 in
06:00 43.0 °F 41.4 °F 30.40 in NW 1.0 mph 5.0 mph 94 % 0.00 in
06:05 43.0 °F 41.7 °F 30.39 in Calm   5.0 mph 95 % 0.00 in
06:10 43.2 °F 41.9 °F 30.39 in NNW 1.0 mph 4.0 mph 95 % 0.00 in
06:15 43.2 °F 41.9 °F 30.38 in Calm   4.0 mph 95 % 0.00 in
06:20 43.2 °F 41.9 °F 30.40 in Calm   3.0 mph 95 % 0.00 in
06:25 43.2 °F 41.9 °F 30.38 in North 1.0 mph 3.0 mph 95 % 0.00 in
06:30 43.2 °F 41.9 °F 30.39 in NNW 2.0 mph 3.0 mph 95 % 0.00 in
06:35 43.2 °F 41.9 °F 30.39 in Calm   3.0 mph 95 % 0.00 in
06:40 43.2 °F 41.9 °F 30.40 in Calm   3.0 mph 95 % 0.00 in
06:45 43.2 °F 41.9 °F 30.40 in NW 1.0 mph 3.0 mph 95 % 0.00 in
06:50 43.2 °F 41.9 °F 30.40 in NNW 3.0 mph 3.0 mph 95 % 0.00 in
06:55 43.2 °F 41.9 °F 30.40 in NNW 2.0 mph 3.0 mph 95 % 0.00 in
07:00 43.2 °F 41.9 °F 30.40 in NW 1.0 mph 3.0 mph 95 % 0.00 in
07:05 43.3 °F 42.1 °F 30.40 in NNW 1.0 mph 3.0 mph 95 % 0.00 in
07:10 43.3 °F 42.1 °F 30.39 in North 1.0 mph 3.0 mph 95 % 0.00 in
07:15 43.3 °F 42.1 °F 30.39 in Calm   5.0 mph 95 % 0.00 in
07:20 43.3 °F 42.1 °F 30.40 in Calm   5.0 mph 95 % 0.00 in
07:25 43.3 °F 42.1 °F 30.40 in NNE 3.0 mph 5.0 mph 95 % 0.00 in
07:30 43.3 °F 42.3 °F 30.40 in NNW 1.0 mph 4.0 mph 96 % 0.00 in
07:35 43.3 °F 42.3 °F 30.40 in Calm   4.0 mph 96 % 0.00 in
07:40 43.3 °F 42.3 °F 30.40 in NW 1.0 mph 4.0 mph 96 % 0.00 in
07:45 43.3 °F 42.3 °F 30.40 in NW 1.0 mph 4.0 mph 96 % 0.00 in
07:46 43.3 °F 42.3 °F 30.40 in North 2.0 mph 4.0 mph 96 % 0.00 in
07:51 43.3 °F 42.3 °F 30.41 in Calm   5.0 mph 96 % 0.00 in
07:56 43.3 °F 42.3 °F 30.42 in North 1.0 mph 5.0 mph 96 % 0.00 in
08:01 43.5 °F 42.4 °F 30.41 in Calm   5.0 mph 96 % 0.00 in
08:06 43.5 °F 42.4 °F 30.42 in Calm   4.0 mph 96 % 0.00 in
08:11 43.5 °F 42.4 °F 30.42 in Calm   4.0 mph 96 % 0.00 in
08:16 43.7 °F 42.6 °F 30.42 in ENE 3.0 mph 4.0 mph 96 % 0.00 in
08:21 43.7 °F 42.6 °F 30.41 in ENE 3.0 mph 6.0 mph 96 % 0.00 in
08:26 43.7 °F 42.6 °F 30.41 in ENE 2.0 mph 6.0 mph 96 % 0.00 in
08:31 43.7 °F 42.6 °F 30.41 in ENE 3.0 mph 6.0 mph 96 % 0.00 in
08:36 43.7 °F 42.6 °F 30.40 in Calm   6.0 mph 96 % 0.00 in
08:41 43.7 °F 42.6 °F 30.40 in Calm   6.0 mph 96 % 0.00 in
08:46 43.7 °F 42.6 °F 30.40 in NE 1.0 mph 6.0 mph 96 % 0.00 in
08:51 43.7 °F 42.6 °F 30.41 in NNE 2.0 mph 6.0 mph 96 % 0.00 in
08:56 43.9 °F 42.8 °F 30.41 in ENE 2.0 mph 6.0 mph 96 % 0.00 in
09:01 43.9 °F 42.8 °F 30.40 in NNW 2.0 mph 6.0 mph 96 % 0.00 in
09:06 44.1 °F 43.0 °F 30.41 in NE 2.0 mph 5.0 mph 96 % 0.00 in
09:11 44.1 °F 43.0 °F 30.42 in ENE 1.0 mph 6.0 mph 96 % 0.00 in
09:16 44.1 °F 43.3 °F 30.42 in North 3.0 mph 6.0 mph 97 % 0.00 in
09:21 44.2 °F 43.5 °F 30.43 in NNW 5.0 mph 6.0 mph 97 % 0.00 in
09:26 44.2 °F 43.2 °F 30.43 in NW 1.0 mph 5.0 mph 96 % 0.00 in
09:31 44.2 °F 43.2 °F 30.43 in NNW 3.0 mph 5.0 mph 96 % 0.00 in
09:36 44.2 °F 43.5 °F 30.43 in NW 1.0 mph 5.0 mph 97 % 0.00 in
09:41 44.2 °F 43.5 °F 30.43 in NW 1.0 mph 4.0 mph 97 % 0.00 in
09:46 44.2 °F 43.5 °F 30.44 in Calm   4.0 mph 97 % 0.00 in
09:51 44.2 °F 43.5 °F 30.45 in Calm   4.0 mph 97 % 0.00 in
09:56 44.2 °F 43.5 °F 30.45 in Calm   3.0 mph 97 % 0.00 in
10:01 44.2 °F 43.5 °F 30.45 in NNW 3.0 mph 3.0 mph 97 % 0.00 in
10:06 44.2 °F 43.5 °F 30.44 in NW 2.0 mph 4.0 mph 97 % 0.00 in
10:11 44.4 °F 43.7 °F 30.44 in Calm   4.0 mph 97 % 0.00 in
10:16 44.4 °F 43.7 °F 30.45 in Calm   4.0 mph 97 % 0.00 in
10:21 44.4 °F 43.7 °F 30.45 in North 1.0 mph 3.0 mph 97 % 0.01 in
10:26 44.4 °F 43.7 °F 30.45 in Calm   3.0 mph 97 % 0.01 in
10:31 44.4 °F 43.7 °F 30.45 in NNW 3.0 mph 3.0 mph 97 % 0.01 in
10:36 44.8 °F 44.1 °F 30.44 in Calm   4.0 mph 97 % 0.01 in
10:41 44.8 °F 44.1 °F 30.44 in NNW 1.0 mph 4.0 mph 97 % 0.01 in
10:46 44.8 °F 44.2 °F 30.44 in NE 1.0 mph 4.0 mph 98 % 0.02 in
10:51 44.8 °F 44.1 °F 30.43 in ENE 2.0 mph 5.0 mph 97 % 0.03 in
10:56 44.8 °F 44.2 °F 30.43 in Calm   5.0 mph 98 % 0.04 in
11:01 44.8 °F 44.2 °F 30.42 in NNW 2.0 mph 5.0 mph 98 % 0.04 in
11:06 45.0 °F 44.4 °F 30.43 in ENE 2.0 mph 4.0 mph 98 % 0.05 in
11:11 45.0 °F 44.4 °F 30.43 in NNW 2.0 mph 4.0 mph 98 % 0.05 in
11:16 45.0 °F 44.4 °F 30.43 in Calm   4.0 mph 98 % 0.05 in
11:21 45.1 °F 44.6 °F 30.44 in Calm   4.0 mph 98 % 0.04 in
11:26 45.1 °F 44.6 °F 30.43 in Calm   4.0 mph 98 % 0.04 in
11:31 45.3 °F 44.8 °F 30.43 in NNW 2.0 mph 4.0 mph 98 % 0.04 in
11:36 45.3 °F 44.8 °F 30.43 in Calm   4.0 mph 98 % 0.05 in
11:41 45.1 °F 44.6 °F 30.43 in ENE 1.0 mph 3.0 mph 98 % 0.07 in
11:46 45.1 °F 44.6 °F 30.42 in NW 1.0 mph 4.0 mph 98 % 0.07 in
11:51 45.1 °F 44.6 °F 30.42 in NNE 1.0 mph 4.0 mph 98 % 0.06 in
11:56 45.3 °F 44.8 °F 30.42 in NW 2.0 mph 4.0 mph 98 % 0.05 in
12:01 45.3 °F 44.8 °F 30.42 in Calm   4.0 mph 98 % 0.05 in
12:06 45.7 °F 45.1 °F 30.42 in Calm   4.0 mph 98 % 0.04 in
12:11 45.7 °F 45.1 °F 30.43 in Calm   2.0 mph 98 % 0.04 in
12:12 45.7 °F 45.1 °F 30.42 in Calm   2.0 mph 98 % 0.04 in
12:17 45.9 °F 45.3 °F 30.42 in NNW 1.0 mph 2.0 mph 98 % 0.04 in
12:22 45.9 °F 45.3 °F 30.43 in Calm   3.0 mph 98 % 0.04 in
12:27 45.9 °F 45.3 °F 30.42 in NNW 1.0 mph 3.0 mph 98 % 0.04 in
12:32 46.0 °F 45.5 °F 30.42 in Calm   3.0 mph 98 % 0.04 in
12:37 46.2 °F 45.7 °F 30.41 in Calm   2.0 mph 98 % 0.03 in
12:42 46.4 °F 45.9 °F 30.41 in NW 2.0 mph 2.0 mph 98 % 0.01 in
12:47 46.6 °F 46.0 °F 30.40 in Calm   3.0 mph 98 % 0.00 in
12:52 46.8 °F 46.2 °F 30.40 in Calm   3.0 mph 98 % 0.00 in
12:57 46.8 °F 46.2 °F 30.40 in NNW 1.0 mph 3.0 mph 98 % 0.00 in
13:02 46.9 °F 46.4 °F 30.39 in NW 1.0 mph 3.0 mph 98 % 0.00 in
13:07 47.1 °F 46.6 °F 30.39 in Calm   3.0 mph 98 % 0.00 in
13:12 47.1 °F 46.6 °F 30.38 in NE 1.0 mph 3.0 mph 98 % 0.00 in
13:17 47.3 °F 46.8 °F 30.38 in Calm   3.0 mph 98 % 0.00 in
13:22 47.5 °F 46.9 °F 30.38 in Calm   3.0 mph 98 % 0.00 in
13:27 47.5 °F 46.9 °F 30.38 in North 1.0 mph 4.0 mph 98 % 0.00 in
13:32 47.7 °F 47.1 °F 30.38 in NNW 1.0 mph 4.0 mph 98 % 0.00 in
13:37 47.8 °F 47.3 °F 30.38 in NNE 1.0 mph 4.0 mph 98 % 0.00 in
13:42 48.4 °F 47.8 °F 30.38 in North 2.0 mph 4.0 mph 98 % 0.00 in
13:47 48.4 °F 47.8 °F 30.38 in Calm   4.0 mph 98 % 0.00 in
13:52 48.6 °F 48.0 °F 30.37 in North 1.0 mph 4.0 mph 98 % 0.00 in
13:57 48.6 °F 48.0 °F 30.38 in North 1.0 mph 3.0 mph 98 % 0.00 in
14:02 48.6 °F 48.0 °F 30.38 in North 1.0 mph 3.0 mph 98 % 0.00 in
14:07 48.6 °F 48.0 °F 30.38 in NE 2.0 mph 3.0 mph 98 % 0.00 in
14:12 48.4 °F 47.5 °F 30.37 in NW 1.0 mph 5.0 mph 97 % 0.00 in
14:17 48.6 °F 48.0 °F 30.37 in Calm   5.0 mph 98 % 0.00 in
14:22 48.7 °F 48.2 °F 30.37 in NNW 1.0 mph 5.0 mph 98 % 0.00 in
14:27 48.6 °F 47.7 °F 30.37 in Calm   4.0 mph 97 % 0.00 in
14:32 48.6 °F 47.7 °F 30.36 in NNW 3.0 mph 5.0 mph 97 % 0.00 in
14:37 48.7 °F 48.2 °F 30.36 in ENE 1.0 mph 5.0 mph 98 % 0.00 in
14:40 48.9 °F 48.4 °F 30.35 in Calm   5.0 mph 98 % 0.00 in
14:45 49.3 °F 48.4 °F 30.35 in NW 2.0 mph 4.0 mph 97 % 0.00 in
14:50 48.9 °F 48.0 °F 30.35 in ENE 2.0 mph 5.0 mph 97 % 0.00 in
14:55 48.9 °F 48.0 °F 30.36 in Calm   5.0 mph 97 % 0.00 in
15:00 49.3 °F 48.7 °F 30.35 in WNW 1.0 mph 5.0 mph 98 % 0.00 in
15:05 49.3 °F 48.4 °F 30.35 in NE 2.0 mph 5.0 mph 97 % 0.00 in
15:10 49.6 °F 48.7 °F 30.35 in Calm   4.0 mph 97 % 0.00 in
15:15 49.6 °F 48.7 °F 30.35 in North 2.0 mph 5.0 mph 97 % 0.00 in
15:20 49.6 °F 48.7 °F 30.35 in ENE 2.0 mph 5.0 mph 97 % 0.00 in
15:26 49.8 °F 48.9 °F 30.34 in NNW 1.0 mph 5.0 mph 97 % 0.00 in
15:31 50.2 °F 49.3 °F 30.34 in Calm   5.0 mph 97 % 0.00 in
15:36 50.0 °F 49.1 °F 30.34 in ENE 2.0 mph 5.0 mph 97 % 0.00 in
15:41 50.0 °F 48.9 °F 30.35 in Calm   5.0 mph 96 % 0.00 in
15:46 50.0 °F 49.1 °F 30.34 in NW 1.0 mph 5.0 mph 97 % 0.00 in
15:51 50.2 °F 49.1 °F 30.34 in Calm   5.0 mph 96 % 0.00 in
15:56 50.2 °F 49.1 °F 30.34 in ESE 3.0 mph 5.0 mph 96 % 0.00 in
16:01 50.2 °F 49.1 °F 30.34 in North 1.0 mph 4.0 mph 96 % 0.00 in
16:06 50.2 °F 49.1 °F 30.34 in Calm   4.0 mph 96 % 0.00 in
16:11 50.2 °F 49.1 °F 30.35 in Calm   4.0 mph 96 % 0.00 in
16:16 50.2 °F 49.1 °F 30.35 in Calm   3.0 mph 96 % 0.00 in
16:21 50.4 °F 49.3 °F 30.35 in Calm   3.0 mph 96 % 0.00 in
16:26 50.4 °F 49.3 °F 30.35 in NW 1.0 mph 3.0 mph 96 % 0.00 in
16:31 50.4 °F 49.3 °F 30.36 in Calm   4.0 mph 96 % 0.00 in
16:36 50.4 °F 49.3 °F 30.36 in ENE 1.0 mph 4.0 mph 96 % 0.00 in
16:41 50.4 °F 49.3 °F 30.35 in NE 1.0 mph 4.0 mph 96 % 0.00 in
16:46 50.4 °F 49.3 °F 30.35 in NW 4.0 mph 4.0 mph 96 % 0.00 in
16:51 50.4 °F 49.5 °F 30.35 in Calm   5.0 mph 97 % 0.00 in
16:56 50.4 °F 49.5 °F 30.35 in North 1.0 mph 5.0 mph 97 % 0.00 in
17:01 50.2 °F 49.3 °F 30.35 in Calm   5.0 mph 97 % 0.00 in
17:06 50.2 °F 49.3 °F 30.35 in NW 1.0 mph 3.0 mph 97 % 0.00 in
17:11 50.2 °F 49.3 °F 30.35 in NNW 1.0 mph 4.0 mph 97 % 0.00 in
17:16 50.2 °F 49.3 °F 30.35 in Calm   4.0 mph 97 % 0.00 in
17:21 50.2 °F 49.3 °F 30.35 in Calm   4.0 mph 97 % 0.00 in
17:26 50.2 °F 49.3 °F 30.35 in Calm   3.0 mph 97 % 0.00 in
17:31 50.2 °F 49.3 °F 30.36 in Calm   3.0 mph 97 % 0.00 in
17:36 50.2 °F 49.3 °F 30.36 in NNE 1.0 mph 3.0 mph 97 % 0.00 in
17:41 50.0 °F 49.5 °F 30.36 in Calm   3.0 mph 98 % 0.00 in
17:46 50.0 °F 49.5 °F 30.36 in NE 1.0 mph 3.0 mph 98 % 0.00 in
17:51 50.0 °F 49.5 °F 30.35 in ENE 1.0 mph 3.0 mph 98 % 0.00 in
17:56 50.0 °F 49.5 °F 30.35 in NNE 1.0 mph 3.0 mph 98 % 0.00 in
18:01 50.0 °F 49.5 °F 30.36 in North 1.0 mph 2.0 mph 98 % 0.00 in
18:06 50.0 °F 49.5 °F 30.36 in ENE 1.0 mph 2.0 mph 98 % 0.00 in
18:11 50.0 °F 49.5 °F 30.36 in Calm   2.0 mph 98 % 0.00 in
18:16 50.0 °F 49.5 °F 30.36 in NE 1.0 mph 3.0 mph 98 % 0.00 in
18:21 50.0 °F 49.5 °F 30.36 in Calm   3.0 mph 98 % 0.00 in
18:26 50.0 °F 49.5 °F 30.35 in North 1.0 mph 3.0 mph 98 % 0.00 in
18:31 50.0 °F 49.5 °F 30.35 in ENE 2.0 mph 3.0 mph 98 % 0.00 in
18:36 50.0 °F 49.5 °F 30.35 in ENE 1.0 mph 3.0 mph 98 % 0.00 in
18:41 50.0 °F 49.5 °F 30.35 in Calm   3.0 mph 98 % 0.00 in
18:46 50.0 °F 49.5 °F 30.35 in Calm   3.0 mph 98 % 0.00 in
18:51 50.0 °F 49.5 °F 30.35 in Calm   3.0 mph 98 % 0.00 in
18:56 50.2 °F 49.6 °F 30.35 in Calm   3.0 mph 98 % 0.00 in
19:01 50.2 °F 49.6 °F 30.35 in Calm   2.0 mph 98 % 0.00 in
19:06 50.2 °F 49.6 °F 30.35 in North 1.0 mph 2.0 mph 98 % 0.00 in
19:11 50.2 °F 49.8 °F 30.36 in Calm   2.0 mph 99 % 0.00 in
19:16 50.2 °F 49.8 °F 30.35 in ENE 1.0 mph 2.0 mph 99 % 0.00 in
19:21 50.2 °F 49.8 °F 30.35 in East 1.0 mph 2.0 mph 99 % 0.00 in
19:26 50.2 °F 49.8 °F 30.35 in Calm   3.0 mph 99 % 0.00 in
19:31 50.2 °F 49.8 °F 30.36 in ENE 1.0 mph 3.0 mph 99 % 0.00 in
19:36 50.2 °F 49.8 °F 30.35 in Calm   3.0 mph 99 % 0.00 in
19:41 50.4 °F 50.0 °F 30.35 in ESE 1.0 mph 2.0 mph 99 % 0.00 in
19:46 50.4 °F 50.0 °F 30.35 in Calm   2.0 mph 99 % 0.00 in
19:51 50.4 °F 50.0 °F 30.36 in Calm   2.0 mph 99 % 0.00 in
19:56 50.4 °F 50.0 °F 30.36 in North 1.0 mph 2.0 mph 99 % 0.00 in
20:01 50.4 °F 50.0 °F 30.36 in Calm   2.0 mph 99 % 0.00 in
20:06 50.4 °F 50.0 °F 30.36 in Calm   2.0 mph 99 % 0.00 in
20:11 50.4 °F 50.0 °F 30.35 in NW 1.0 mph 2.0 mph 99 % 0.00 in
20:16 50.4 °F 50.0 °F 30.35 in Calm   2.0 mph 99 % 0.00 in
20:21 50.4 °F 50.0 °F 30.36 in Calm   2.0 mph 99 % 0.00 in
20:26 50.4 °F 50.0 °F 30.36 in Calm   2.0 mph 99 % 0.00 in
20:31 50.4 °F 50.0 °F 30.37 in Calm   2.0 mph 99 % 0.00 in
20:36 50.4 °F 50.0 °F 30.37 in NNW 1.0 mph 1.0 mph 99 % 0.00 in
20:41 50.5 °F 50.2 °F 30.36 in Calm   2.0 mph 99 % 0.00 in
20:46 50.5 °F 50.2 °F 30.36 in Calm   2.0 mph 99 % 0.00 in
20:51 50.5 °F 50.2 °F 30.37 in Calm   2.0 mph 99 % 0.00 in
20:56 50.5 °F 50.2 °F 30.37 in Calm   1.0 mph 99 % 0.00 in
21:01 50.5 °F 50.2 °F 30.38 in NW 1.0 mph 1.0 mph 99 % 0.00 in
21:06 50.5 °F 50.2 °F 30.38 in NNW 1.0 mph 2.0 mph 99 % 0.00 in
21:11 50.5 °F 50.2 °F 30.38 in Calm   2.0 mph 99 % 0.00 in
21:16 50.7 °F 50.4 °F 30.38 in Calm   2.0 mph 99 % 0.01 in
21:21 50.7 °F 50.4 °F 30.37 in Calm   1.0 mph 99 % 0.01 in
21:26 50.7 °F 50.4 °F 30.37 in Calm   1.0 mph 99 % 0.01 in
21:31 50.7 °F 50.4 °F 30.37 in Calm   1.0 mph 99 % 0.01 in
21:36 50.7 °F 50.4 °F 30.37 in NNE 1.0 mph 1.0 mph 99 % 0.01 in
21:41 50.7 °F 50.4 °F 30.37 in North 1.0 mph 2.0 mph 99 % 0.01 in
21:46 50.7 °F 50.4 °F 30.37 in ENE 1.0 mph 2.0 mph 99 % 0.01 in
21:51 50.7 °F 50.4 °F 30.36 in Calm   2.0 mph 99 % 0.01 in
21:56 50.7 °F 50.4 °F 30.36 in Calm   2.0 mph 99 % 0.01 in
22:01 50.9 °F 50.5 °F 30.36 in Calm   2.0 mph 99 % 0.01 in
22:06 50.9 °F 50.5 °F 30.36 in Calm   2.0 mph 99 % 0.01 in
22:11 50.9 °F 50.5 °F 30.35 in Calm   2.0 mph 99 % 0.01 in
22:16 50.9 °F 50.5 °F 30.35 in ENE 2.0 mph 2.0 mph 99 % 0.00 in
22:21 50.9 °F 50.5 °F 30.35 in Calm   4.0 mph 99 % 0.00 in
22:26 50.9 °F 50.5 °F 30.36 in Calm   4.0 mph 99 % 0.00 in
22:31 51.1 °F 50.7 °F 30.36 in Calm   4.0 mph 99 % 0.00 in
22:36 51.1 °F 50.7 °F 30.36 in Calm   2.0 mph 99 % 0.00 in
22:41 51.1 °F 50.7 °F 30.36 in Calm   2.0 mph 99 % 0.00 in
22:47 51.1 °F 51.1 °F 30.36 in Calm   2.0 mph 100 % 0.00 in
22:52 51.1 °F 50.7 °F 30.36 in NE 1.0 mph 2.0 mph 99 % 0.00 in
22:57 51.1 °F 50.7 °F 30.35 in ENE 1.0 mph 2.0 mph 99 % 0.00 in
23:02 51.1 °F 50.7 °F 30.35 in Calm   2.0 mph 99 % 0.00 in
23:07 51.1 °F 51.1 °F 30.35 in Calm   2.0 mph 100 % 0.00 in
23:12 51.1 °F 51.1 °F 30.35 in Calm   2.0 mph 100 % 0.00 in
23:17 51.1 °F 51.1 °F 30.35 in Calm   2.0 mph 100 % 0.00 in
23:22 51.1 °F 51.1 °F 30.35 in Calm   2.0 mph 100 % 0.00 in
23:27 51.1 °F 51.1 °F 30.35 in Calm   1.0 mph 100 % 0.00 in
23:32 51.3 °F 51.3 °F 30.35 in Calm   2.0 mph 100 % 0.00 in
23:37 51.3 °F 51.3 °F 30.35 in Calm   2.0 mph 100 % 0.00 in
23:42 51.3 °F 51.3 °F 30.34 in Calm   2.0 mph 100 % 0.00 in
23:47 51.3 °F 51.3 °F 30.34 in Calm   2.0 mph 100 % 0.00 in
23:52 51.3 °F 51.3 °F 30.34 in Calm   2.0 mph 100 % 0.00 in
23:57 51.3 °F 51.3 °F 30.34 in East 2.0 mph 2.0 mph 100 % 0.00 in
Spring, Texas: Villages of Bridgestone
Compliments of Weather Underground - 2.75 mb

Script developed by  Jim McMurry - jmcmurry@mwt.net Adapted for the template by  Wim van der Kuil - Leuven-Template.eu

You find our weather info also at:

UK Metoffice

WeatherCloud

Weather Underground

Mid-South Weather Network

AWEKAS

Citizen Weather Observer Program (CWOP)

HAMweather, WeatherForYou, PWS Weather

Equipment we use:

Weather-station
Davis Vantage Vue

Weather-program
Meteohub

Weather-server
Debian 7.9 x86 (Guest)

Provider
DreamHost

Davis Vantage Vue

Meteohub

Debian 7.9 x86 (Guest)

DreamHost